{"data":{"norad_id":62025,"epoch":"2026-09-21T11:32:32.221536Z","epoch_age_seconds":100787,"freshness":"FRESH","line1":"1 62025U 24213T   26264.48092849  .00010919  00000+0  33378-3 0  9997","line2":"2 62025  53.1598 334.9898 0000992  82.9144 277.1971 15.34404624103180","mean_motion":15.34404624,"eccentricity":9.92e-5,"inclination_deg":53.1598,"raan_deg":334.9898,"arg_perigee_deg":82.9144,"mean_anomaly_deg":277.1971,"bstar":0.00033378,"rev_number":10318,"period_min":93.847475266733,"perigee_km":462.01088675068,"apogee_km":463.36810672763,"semimajor_km":6840.8264967392,"source":"CELESTRAK","updated_at":"2026-09-22T09:00:49.485600Z"}}